Time,TemperatureF,DewpointF,PressureIn,WindDirection,WindDirectionDegrees,WindSpeedMPH,WindSpeedGustMPH,Humidity,HourlyPrecipIn,Conditions,Clouds,dailyrainin,SoftwareType,DateUTC
2013-08-21 00:00:00,70.7,57.6,29.77,SSE,154,0.0,0.0,63,0.00,,,0.00,meteobridge,2013-08-21 06:00:00,
2013-08-21 00:05:00,70.5,58.6,29.77,SSE,154,0.0,0.0,66,0.00,,,0.00,meteobridge,2013-08-21 06:05:00,
2013-08-21 00:10:00,70.2,58.6,29.77,SSE,154,0.0,0.0,67,0.00,,,0.00,meteobridge,2013-08-21 06:10:00,
2013-08-21 00:15:00,70.0,59.4,29.77,SSE,154,0.0,0.0,69,0.00,,,0.00,meteobridge,2013-08-21 06:15:00,
2013-08-21 00:20:00,70.0,58.1,29.77,SSE,154,0.0,0.0,66,0.00,,,0.00,meteobridge,2013-08-21 06:20:00,
2013-08-21 00:25:00,69.8,58.3,29.77,SSE,154,0.0,0.0,67,0.00,,,0.00,meteobridge,2013-08-21 06:25:00,
2013-08-21 00:30:00,69.6,57.7,29.77,SSE,154,0.0,0.0,66,0.00,,,0.00,meteobridge,2013-08-21 06:30:00,
2013-08-21 00:36:00,69.6,57.4,29.77,SSE,154,0.0,0.0,65,0.00,,,0.00,meteobridge,2013-08-21 06:36:00,
2013-08-21 00:41:00,69.4,57.9,29.77,SSE,154,0.0,0.0,67,0.00,,,0.00,meteobridge,2013-08-21 06:41:00,
2013-08-21 00:46:00,69.4,57.9,29.77,SSE,154,0.0,0.0,67,0.00,,,0.00,meteobridge,2013-08-21 06:46:00,
2013-08-21 00:51:00,69.3,57.9,29.77,SSE,154,0.0,0.0,67,0.00,,,0.00,meteobridge,2013-08-21 06:51:00,
2013-08-21 00:57:00,69.3,58.3,29.77,SSE,154,0.0,0.0,68,0.00,,,0.00,meteobridge,2013-08-21 06:57:00,
2013-08-21 01:02:00,69.3,58.6,29.77,SSE,154,0.0,0.0,69,0.00,,,0.00,meteobridge,2013-08-21 07:02:00,
2013-08-21 01:07:00,69.1,58.5,29.77,SSE,154,0.0,0.0,69,0.00,,,0.00,meteobridge,2013-08-21 07:07:00,
2013-08-21 01:12:00,69.3,59.5,29.77,SSE,154,0.0,0.9,71,0.00,,,0.00,meteobridge,2013-08-21 07:12:00,
2013-08-21 01:17:00,68.7,60.4,29.77,SSE,154,0.0,0.0,75,0.00,,,0.00,meteobridge,2013-08-21 07:17:00,
2013-08-21 01:23:00,68.5,59.2,29.77,SSE,154,0.0,0.0,72,0.00,,,0.00,meteobridge,2013-08-21 07:23:00,
2013-08-21 01:28:00,68.4,59.7,29.76,SSE,154,0.0,0.0,74,0.00,,,0.00,meteobridge,2013-08-21 07:28:00,
2013-08-21 01:33:00,68.4,59.0,29.76,SSE,154,0.0,0.0,72,0.00,,,0.00,meteobridge,2013-08-21 07:33:00,
2013-08-21 01:38:00,68.9,58.3,29.76,SSE,154,0.0,0.0,69,0.00,,,0.00,meteobridge,2013-08-21 07:38:00,
2013-08-21 01:43:00,68.5,58.8,29.76,SSE,154,0.0,0.0,71,0.00,,,0.00,meteobridge,2013-08-21 07:43:00,
2013-08-21 01:48:00,68.4,59.0,29.76,SSE,154,0.0,0.0,72,0.00,,,0.00,meteobridge,2013-08-21 07:48:00,
2013-08-21 01:53:00,68.2,58.8,29.76,SSE,154,0.0,0.0,72,0.00,,,0.00,meteobridge,2013-08-21 07:53:00,
2013-08-21 01:59:00,68.2,58.8,29.76,SSE,154,0.0,0.0,72,0.00,,,0.00,meteobridge,2013-08-21 07:59:00,
2013-08-21 02:04:00,67.8,59.2,29.76,SSE,154,0.0,0.0,74,0.00,,,0.00,meteobridge,2013-08-21 08:04:00,
2013-08-21 02:09:00,67.5,58.8,29.75,SSE,154,0.0,0.0,74,0.00,,,0.00,meteobridge,2013-08-21 08:09:00,
2013-08-21 02:14:00,67.5,59.2,29.75,SSE,154,0.0,0.0,75,0.00,,,0.00,meteobridge,2013-08-21 08:14:00,
2013-08-21 02:19:00,67.1,59.7,29.75,SSE,154,0.0,0.0,77,0.00,,,0.00,meteobridge,2013-08-21 08:19:00,
2013-08-21 02:24:00,67.3,60.6,29.76,SSE,154,0.0,0.0,79,0.00,,,0.00,meteobridge,2013-08-21 08:24:00,
2013-08-21 02:30:00,67.3,59.5,29.76,SSE,154,0.0,0.0,76,0.00,,,0.00,meteobridge,2013-08-21 08:30:00,
2013-08-21 02:35:00,67.5,59.5,29.76,SSE,154,0.0,0.0,76,0.00,,,0.00,meteobridge,2013-08-21 08:35:00,
2013-08-21 02:40:00,67.5,59.5,29.76,SSE,154,0.0,0.0,76,0.00,,,0.00,meteobridge,2013-08-21 08:40:00,
2013-08-21 02:45:00,67.3,59.5,29.76,SSE,154,0.0,0.0,76,0.00,,,0.00,meteobridge,2013-08-21 08:45:00,
2013-08-21 02:50:00,66.7,59.4,29.76,SSE,154,0.0,0.0,77,0.00,,,0.00,meteobridge,2013-08-21 08:50:00,
2013-08-21 02:55:00,66.7,59.7,29.76,SSE,154,0.0,0.0,78,0.00,,,0.00,meteobridge,2013-08-21 08:55:00,
2013-08-21 03:01:00,66.4,59.7,29.76,SSE,154,0.0,0.0,79,0.00,,,0.00,meteobridge,2013-08-21 09:01:00,
2013-08-21 03:06:00,66.2,59.5,29.75,SSE,154,0.0,0.0,79,0.00,,,0.00,meteobridge,2013-08-21 09:06:00,
2013-08-21 03:11:00,66.0,59.7,29.75,SSE,154,0.0,0.0,80,0.00,,,0.00,meteobridge,2013-08-21 09:11:00,
2013-08-21 03:16:00,66.0,59.7,29.75,SSE,154,0.0,0.0,80,0.00,,,0.00,meteobridge,2013-08-21 09:16:00,
2013-08-21 03:22:00,65.8,59.9,29.75,SSE,154,0.0,0.0,81,0.00,,,0.00,meteobridge,2013-08-21 09:22:00,
2013-08-21 03:27:00,65.8,59.9,29.75,SSE,154,0.0,0.0,81,0.00,,,0.00,meteobridge,2013-08-21 09:27:00,
2013-08-21 03:32:00,65.7,59.7,29.75,SSE,154,0.0,0.0,81,0.00,,,0.00,meteobridge,2013-08-21 09:32:00,
2013-08-21 03:37:00,65.8,59.5,29.75,SSE,154,0.0,0.0,80,0.00,,,0.00,meteobridge,2013-08-21 09:37:00,
2013-08-21 03:42:00,66.0,60.1,29.75,SSE,154,0.0,0.0,81,0.00,,,0.00,meteobridge,2013-08-21 09:42:00,
2013-08-21 03:48:00,66.0,59.7,29.75,SSE,154,0.0,0.0,80,0.00,,,0.00,meteobridge,2013-08-21 09:48:00,
2013-08-21 03:53:00,65.8,59.9,29.75,SSE,154,0.0,0.0,81,0.00,,,0.00,meteobridge,2013-08-21 09:53:00,
2013-08-21 03:58:00,66.0,59.7,29.76,SSE,154,0.0,0.0,80,0.00,,,0.00,meteobridge,2013-08-21 09:58:00,
2013-08-21 04:03:00,65.7,59.7,29.76,SSE,154,0.0,0.0,81,0.00,,,0.00,meteobridge,2013-08-21 10:03:00,
2013-08-21 04:08:00,65.3,59.7,29.76,SSE,154,0.0,0.0,82,0.00,,,0.00,meteobridge,2013-08-21 10:08:00,
2013-08-21 04:13:00,65.1,59.9,29.76,SSE,154,0.0,0.0,83,0.00,,,0.00,meteobridge,2013-08-21 10:13:00,
2013-08-21 04:18:00,64.8,59.9,29.76,SSE,154,0.0,0.0,84,0.00,,,0.00,meteobridge,2013-08-21 10:18:00,
2013-08-21 04:23:00,64.9,59.9,29.76,SSE,154,0.0,0.0,84,0.00,,,0.00,meteobridge,2013-08-21 10:23:00,
2013-08-21 04:29:00,64.9,59.9,29.76,SSE,154,0.0,0.0,84,0.00,,,0.00,meteobridge,2013-08-21 10:29:00,
2013-08-21 04:34:00,64.9,59.7,29.76,SSE,154,0.0,0.0,83,0.00,,,0.00,meteobridge,2013-08-21 10:34:00,
2013-08-21 04:39:00,64.6,59.7,29.76,SSE,154,0.0,0.0,84,0.00,,,0.00,meteobridge,2013-08-21 10:39:00,
2013-08-21 04:44:00,64.4,59.7,29.76,SSE,154,0.0,0.0,85,0.00,,,0.00,meteobridge,2013-08-21 10:44:00,
2013-08-21 04:49:00,64.4,59.7,29.76,SSE,154,0.0,0.0,85,0.00,,,0.00,meteobridge,2013-08-21 10:49:00,
2013-08-21 04:54:00,64.2,59.5,29.77,SSE,154,0.0,0.0,85,0.00,,,0.00,meteobridge,2013-08-21 10:54:00,
2013-08-21 05:00:00,64.0,59.7,29.77,SSE,154,0.0,0.0,86,0.00,,,0.00,meteobridge,2013-08-21 11:00:00,
2013-08-21 05:05:00,64.0,59.2,29.77,SSE,154,0.0,0.0,84,0.00,,,0.00,meteobridge,2013-08-21 11:05:00,
2013-08-21 05:10:00,64.0,59.7,29.77,SSE,154,0.0,0.0,86,0.00,,,0.00,meteobridge,2013-08-21 11:10:00,
2013-08-21 05:15:00,63.9,59.5,29.78,SSE,154,0.0,0.0,86,0.00,,,0.00,meteobridge,2013-08-21 11:15:00,
2013-08-21 05:21:00,64.0,59.7,29.78,SSE,154,0.0,0.0,86,0.00,,,0.00,meteobridge,2013-08-21 11:21:00,
2013-08-21 05:26:00,64.0,59.7,29.78,SSE,154,0.0,0.0,86,0.00,,,0.00,meteobridge,2013-08-21 11:26:00,
2013-08-21 05:31:00,63.9,59.5,29.78,SSE,154,0.0,0.0,86,0.00,,,0.00,meteobridge,2013-08-21 11:31:00,
2013-08-21 05:36:00,63.7,59.4,29.78,SSE,154,0.0,0.0,86,0.00,,,0.00,meteobridge,2013-08-21 11:36:00,
2013-08-21 05:41:00,63.7,59.4,29.78,SSE,154,0.0,0.0,86,0.00,,,0.00,meteobridge,2013-08-21 11:41:00,
2013-08-21 05:46:00,63.7,59.7,29.78,SSE,154,0.0,0.0,87,0.00,,,0.00,meteobridge,2013-08-21 11:46:00,
2013-08-21 05:52:00,63.9,59.5,29.78,SSE,154,0.0,0.0,86,0.00,,,0.00,meteobridge,2013-08-21 11:52:00,
2013-08-21 05:57:00,63.7,59.4,29.78,SSE,154,0.0,0.0,86,0.00,,,0.00,meteobridge,2013-08-21 11:57:00,
2013-08-21 06:02:00,63.7,59.7,29.79,SSE,154,0.0,0.0,87,0.00,,,0.00,meteobridge,2013-08-21 12:02:00,
2013-08-21 06:07:00,63.5,59.5,29.79,SSE,154,0.0,0.0,87,0.00,,,0.00,meteobridge,2013-08-21 12:07:00,
2013-08-21 06:12:00,63.5,59.5,29.78,SSE,154,0.0,0.0,87,0.00,,,0.00,meteobridge,2013-08-21 12:12:00,
2013-08-21 06:17:00,63.1,59.2,29.79,SSE,154,0.0,0.0,87,0.00,,,0.00,meteobridge,2013-08-21 12:17:00,
2013-08-21 06:22:00,63.1,59.2,29.79,SSE,154,0.0,0.0,87,0.00,,,0.00,meteobridge,2013-08-21 12:22:00,
2013-08-21 06:28:00,62.8,58.8,29.79,SSE,154,0.0,0.0,87,0.00,,,0.00,meteobridge,2013-08-21 12:28:00,
2013-08-21 06:33:00,62.8,59.2,29.79,SSE,154,0.0,0.0,88,0.00,,,0.00,meteobridge,2013-08-21 12:33:00,
2013-08-21 06:38:00,62.4,58.8,29.79,SSE,154,0.0,0.0,88,0.00,,,0.00,meteobridge,2013-08-21 12:38:00,
2013-08-21 06:43:00,62.4,58.8,29.80,SSE,154,0.0,0.0,88,0.00,,,0.00,meteobridge,2013-08-21 12:43:00,
2013-08-21 06:48:00,62.6,58.6,29.80,SSE,154,0.0,0.0,87,0.00,,,0.00,meteobridge,2013-08-21 12:48:00,
2013-08-21 06:54:00,63.0,58.5,29.80,SSE,154,0.0,0.0,85,0.00,,,0.00,meteobridge,2013-08-21 12:54:00,
2013-08-21 06:59:00,63.3,58.1,29.80,SSE,154,0.0,0.0,83,0.00,,,0.00,meteobridge,2013-08-21 12:59:00,
2013-08-21 07:04:00,63.7,58.1,29.80,SSE,154,0.0,0.0,82,0.00,,,0.00,meteobridge,2013-08-21 13:04:00,
2013-08-21 07:09:00,63.9,57.9,29.81,SSE,154,0.0,0.0,81,0.00,,,0.00,meteobridge,2013-08-21 13:09:00,
2013-08-21 07:14:00,64.2,58.3,29.81,SSE,154,0.0,0.0,81,0.00,,,0.00,meteobridge,2013-08-21 13:14:00,
2013-08-21 07:19:00,64.8,58.8,29.81,SSE,154,0.0,0.0,81,0.00,,,0.00,meteobridge,2013-08-21 13:19:00,
2013-08-21 07:25:00,64.9,58.6,29.81,SSE,154,0.0,0.0,80,0.00,,,0.00,meteobridge,2013-08-21 13:25:00,
2013-08-21 07:30:00,65.3,59.0,29.81,SSE,154,0.0,0.0,80,0.00,,,0.00,meteobridge,2013-08-21 13:30:00,
2013-08-21 07:35:00,66.0,59.0,29.81,SSE,154,0.0,0.0,78,0.00,,,0.00,meteobridge,2013-08-21 13:35:00,
2013-08-21 07:40:00,66.6,59.2,29.81,SSE,154,0.0,0.0,77,0.00,,,0.00,meteobridge,2013-08-21 13:40:00,
2013-08-21 07:45:00,66.9,59.2,29.82,SSE,154,0.0,0.9,76,0.00,,,0.00,meteobridge,2013-08-21 13:45:00,
2013-08-21 07:50:00,67.5,59.5,29.82,SSE,154,0.0,0.9,76,0.00,,,0.00,meteobridge,2013-08-21 13:50:00,
2013-08-21 07:56:00,67.6,59.4,29.82,SSE,154,0.0,0.9,75,0.00,,,0.00,meteobridge,2013-08-21 13:56:00,
2013-08-21 08:01:00,68.2,59.2,29.82,North,0,0.0,2.0,73,0.00,,,0.00,meteobridge,2013-08-21 14:01:00,
2013-08-21 08:06:00,68.5,58.8,29.82,North,0,0.0,0.9,71,0.00,,,0.00,meteobridge,2013-08-21 14:06:00,
2013-08-21 08:11:00,69.3,58.6,29.82,North,0,0.0,2.9,69,0.00,,,0.00,meteobridge,2013-08-21 14:11:00,
2013-08-21 08:16:00,69.8,58.3,29.82,North,355,0.0,2.9,67,0.00,,,0.00,meteobridge,2013-08-21 14:16:00,
2013-08-21 08:21:00,70.3,58.8,29.82,North,355,0.0,2.0,67,0.00,,,0.00,meteobridge,2013-08-21 14:21:00,
2013-08-21 08:26:00,70.9,58.5,29.82,North,355,0.0,0.9,65,0.00,,,0.00,meteobridge,2013-08-21 14:26:00,
2013-08-21 08:31:00,71.1,58.3,29.82,North,355,0.0,0.9,64,0.00,,,0.00,meteobridge,2013-08-21 14:31:00,
2013-08-21 08:37:00,70.9,59.0,29.83,North,355,0.0,0.0,66,0.00,,,0.00,meteobridge,2013-08-21 14:37:00,
2013-08-21 08:42:00,71.8,58.5,29.83,North,355,0.9,0.9,63,0.00,,,0.00,meteobridge,2013-08-21 14:42:00,
2013-08-21 08:47:00,72.3,58.1,29.82,North,355,0.0,0.9,61,0.00,,,0.00,meteobridge,2013-08-21 14:47:00,
2013-08-21 08:52:00,72.3,58.6,29.82,NW,319,0.0,0.9,62,0.00,,,0.00,meteobridge,2013-08-21 14:52:00,
2013-08-21 08:57:00,73.2,57.6,29.82,NW,319,0.0,0.0,58,0.00,,,0.00,meteobridge,2013-08-21 14:57:00,
2013-08-21 09:02:00,73.9,59.2,29.82,NW,319,0.0,0.0,60,0.00,,,0.00,meteobridge,2013-08-21 15:02:00,
2013-08-21 09:07:00,74.7,58.8,29.82,NW,316,0.9,0.9,58,0.00,,,0.00,meteobridge,2013-08-21 15:07:00,
2013-08-21 09:13:00,74.7,57.4,29.83,West,278,0.0,2.9,55,0.00,,,0.00,meteobridge,2013-08-21 15:13:00,
2013-08-21 09:18:00,74.8,58.1,29.83,WSW,248,0.0,2.0,56,0.00,,,0.00,meteobridge,2013-08-21 15:18:00,
2013-08-21 09:23:00,74.8,58.6,29.83,SW,235,0.9,0.9,57,0.00,,,0.00,meteobridge,2013-08-21 15:23:00,
2013-08-21 09:28:00,75.2,56.8,29.82,SW,221,0.9,2.9,53,0.00,,,0.00,meteobridge,2013-08-21 15:28:00,
2013-08-21 09:33:00,75.6,57.7,29.82,South,173,0.0,2.0,54,0.00,,,0.00,meteobridge,2013-08-21 15:33:00,
2013-08-21 09:38:00,76.6,58.3,29.82,South,173,0.0,0.9,53,0.00,,,0.00,meteobridge,2013-08-21 15:38:00,
2013-08-21 09:43:00,77.4,58.8,29.83,WSW,242,2.0,2.0,53,0.00,,,0.00,meteobridge,2013-08-21 15:43:00,
2013-08-21 09:48:00,77.4,56.7,29.83,ESE,107,2.0,2.0,49,0.00,,,0.00,meteobridge,2013-08-21 15:48:00,
2013-08-21 09:53:00,77.2,56.5,29.83,NE,38,0.9,2.9,49,0.00,,,0.00,meteobridge,2013-08-21 15:53:00,
2013-08-21 09:58:00,77.5,56.3,29.83,SSE,161,0.0,0.9,48,0.00,,,0.00,meteobridge,2013-08-21 15:58:00,
2013-08-21 10:03:00,78.1,59.0,29.83,South,175,0.9,0.9,52,0.00,,,0.00,meteobridge,2013-08-21 16:03:00,
2013-08-21 10:08:00,78.4,57.2,29.82,NNW,329,0.0,0.9,48,0.00,,,0.00,meteobridge,2013-08-21 16:08:00,
2013-08-21 10:13:00,79.2,59.0,29.82,NW,312,0.9,0.9,50,0.00,,,0.00,meteobridge,2013-08-21 16:13:00,
2013-08-21 10:18:00,78.6,56.1,29.82,South,176,0.9,0.9,46,0.00,,,0.00,meteobridge,2013-08-21 16:18:00,
2013-08-21 10:23:00,78.6,56.7,29.82,SW,221,0.9,4.0,47,0.00,,,0.00,meteobridge,2013-08-21 16:23:00,
2013-08-21 10:28:00,79.0,56.5,29.82,SW,232,0.0,2.0,46,0.00,,,0.00,meteobridge,2013-08-21 16:28:00,
2013-08-21 10:33:00,79.9,55.9,29.82,East,90,0.9,4.0,44,0.00,,,0.00,meteobridge,2013-08-21 16:33:00,
2013-08-21 10:39:00,80.1,56.1,29.82,ESE,121,0.0,2.0,44,0.00,,,0.00,meteobridge,2013-08-21 16:39:00,
2013-08-21 10:44:00,80.4,56.5,29.82,SSE,159,2.0,4.0,44,0.00,,,0.00,meteobridge,2013-08-21 16:44:00,
2013-08-21 10:49:00,80.4,57.7,29.82,SSW,212,0.9,4.0,46,0.00,,,0.00,meteobridge,2013-08-21 16:49:00,
2013-08-21 10:54:00,80.4,56.5,29.82,South,171,2.9,4.0,44,0.00,,,0.00,meteobridge,2013-08-21 16:54:00,
2013-08-21 10:59:00,81.1,57.2,29.82,NW,306,2.0,2.9,44,0.00,,,0.00,meteobridge,2013-08-21 16:59:00,
2013-08-21 11:04:00,81.7,56.3,29.81,WSW,250,4.9,6.9,42,0.00,,,0.00,meteobridge,2013-08-21 17:04:00,
2013-08-21 11:09:00,81.7,57.0,29.81,South,179,0.9,8.1,43,0.00,,,0.00,meteobridge,2013-08-21 17:09:00,
2013-08-21 11:14:00,82.0,55.9,29.81,SSE,155,4.0,6.9,41,0.00,,,0.00,meteobridge,2013-08-21 17:14:00,
2013-08-21 11:19:00,82.6,56.5,29.81,SE,137,2.0,4.9,41,0.00,,,0.00,meteobridge,2013-08-21 17:19:00,
2013-08-21 11:24:00,82.8,57.4,29.81,SSW,198,6.0,6.0,42,0.00,,,0.00,meteobridge,2013-08-21 17:24:00,
2013-08-21 11:29:00,81.7,55.8,29.81,SW,223,6.0,6.0,41,0.00,,,0.00,meteobridge,2013-08-21 17:29:00,
2013-08-21 11:34:00,81.5,54.9,29.81,SW,219,4.9,4.9,40,0.00,,,0.00,meteobridge,2013-08-21 17:34:00,
2013-08-21 11:39:00,82.6,55.0,29.81,SW,234,0.9,6.0,39,0.00,,,0.00,meteobridge,2013-08-21 17:39:00,
2013-08-21 11:44:00,83.7,55.4,29.80,SE,141,2.9,8.1,38,0.00,,,0.00,meteobridge,2013-08-21 17:44:00,
2013-08-21 11:49:00,82.9,54.7,29.80,SSW,205,0.9,6.9,38,0.00,,,0.00,meteobridge,2013-08-21 17:49:00,
2013-08-21 11:54:00,83.1,55.6,29.80,SSW,207,2.0,6.0,39,0.00,,,0.00,meteobridge,2013-08-21 17:54:00,
2013-08-21 11:59:00,82.9,55.4,29.80,South,180,0.9,4.0,39,0.00,,,0.00,meteobridge,2013-08-21 17:59:00,
2013-08-21 12:04:00,83.8,55.6,29.80,SE,145,4.9,6.9,38,0.00,,,0.00,meteobridge,2013-08-21 18:04:00,
2013-08-21 12:10:00,84.0,55.8,29.80,SSW,209,4.0,6.9,38,0.00,,,0.00,meteobridge,2013-08-21 18:10:00,
2013-08-21 12:15:00,84.0,54.9,29.80,ESE,123,2.0,4.0,37,0.00,,,0.00,meteobridge,2013-08-21 18:15:00,
2013-08-21 12:20:00,84.4,55.2,29.79,WSW,240,4.9,6.0,37,0.00,,,0.00,meteobridge,2013-08-21 18:20:00,
2013-08-21 12:25:00,85.1,55.2,29.79,SSW,197,6.9,8.9,36,0.00,,,0.00,meteobridge,2013-08-21 18:25:00,
2013-08-21 12:30:00,84.7,54.1,29.79,WSW,250,4.0,8.9,35,0.00,,,0.00,meteobridge,2013-08-21 18:30:00,
2013-08-21 12:35:00,85.5,54.7,29.79,SW,223,2.0,4.9,35,0.00,,,0.00,meteobridge,2013-08-21 18:35:00,
2013-08-21 12:40:00,85.8,53.4,29.79,South,180,4.9,6.9,33,0.00,,,0.00,meteobridge,2013-08-21 18:40:00,
2013-08-21 12:45:00,85.8,54.1,29.79,SSE,157,2.9,8.1,34,0.00,,,0.00,meteobridge,2013-08-21 18:45:00,
2013-08-21 12:50:00,86.4,53.8,29.78,SW,229,4.0,6.0,33,0.00,,,0.00,meteobridge,2013-08-21 18:50:00,
2013-08-21 12:55:00,87.1,54.5,29.78,SE,141,0.9,6.9,33,0.00,,,0.00,meteobridge,2013-08-21 18:55:00,
2013-08-21 13:00:00,87.3,54.7,29.78,NW,307,4.0,8.1,33,0.00,,,0.00,meteobridge,2013-08-21 19:00:00,
2013-08-21 13:05:00,86.7,55.0,29.78,SW,219,2.0,6.0,34,0.00,,,0.00,meteobridge,2013-08-21 19:05:00,
2013-08-21 13:10:00,87.6,55.0,29.78,SW,230,2.0,4.9,33,0.00,,,0.00,meteobridge,2013-08-21 19:10:00,
2013-08-21 13:15:00,87.1,54.5,29.77,WSW,244,2.0,4.9,33,0.00,,,0.00,meteobridge,2013-08-21 19:15:00,
2013-08-21 13:20:00,87.4,54.9,29.77,SW,214,2.0,4.9,33,0.00,,,0.00,meteobridge,2013-08-21 19:20:00,
2013-08-21 13:25:00,87.4,54.0,29.77,WNW,288,0.0,6.9,32,0.00,,,0.00,meteobridge,2013-08-21 19:25:00,
2013-08-21 13:30:00,88.0,55.2,29.77,WSW,243,4.9,6.0,33,0.00,,,0.00,meteobridge,2013-08-21 19:30:00,
2013-08-21 13:35:00,88.7,55.9,29.77,SE,144,0.9,6.9,33,0.00,,,0.00,meteobridge,2013-08-21 19:35:00,
2013-08-21 13:40:00,88.9,55.2,29.77,SSW,204,4.9,4.9,32,0.00,,,0.00,meteobridge,2013-08-21 19:40:00,
2013-08-21 13:46:00,88.3,53.8,29.77,SW,224,2.0,6.0,31,0.00,,,0.00,meteobridge,2013-08-21 19:46:00,
2013-08-21 13:51:00,88.0,53.6,29.77,SW,215,4.0,6.0,31,0.00,,,0.00,meteobridge,2013-08-21 19:51:00,
2013-08-21 13:56:00,87.6,53.2,29.76,West,277,0.0,6.9,31,0.00,,,0.00,meteobridge,2013-08-21 19:56:00,
2013-08-21 14:01:00,88.3,53.8,29.76,South,190,2.0,4.9,31,0.00,,,0.00,meteobridge,2013-08-21 20:01:00,
2013-08-21 14:06:00,88.3,53.8,29.76,SE,129,6.0,6.9,31,0.00,,,0.00,meteobridge,2013-08-21 20:06:00,
2013-08-21 14:11:00,87.4,52.2,29.75,SSW,198,4.0,6.0,30,0.00,,,0.00,meteobridge,2013-08-21 20:11:00,
2013-08-21 14:16:00,87.1,54.5,29.75,SW,224,10.1,10.1,33,0.00,,,0.00,meteobridge,2013-08-21 20:16:00,
2013-08-21 14:21:00,86.7,52.5,29.75,WSW,246,2.0,4.9,31,0.00,,,0.00,meteobridge,2013-08-21 20:21:00,
2013-08-21 14:26:00,86.9,52.7,29.75,South,191,2.0,6.0,31,0.00,,,0.00,meteobridge,2013-08-21 20:26:00,
2013-08-21 14:31:00,87.1,53.6,29.75,SSW,195,4.9,4.9,32,0.00,,,0.00,meteobridge,2013-08-21 20:31:00,
2013-08-21 14:36:00,86.5,52.3,29.75,ESE,115,0.9,0.9,31,0.00,,,0.00,meteobridge,2013-08-21 20:36:00,
2013-08-21 14:41:00,86.5,52.3,29.75,South,170,4.9,6.9,31,0.00,,,0.00,meteobridge,2013-08-21 20:41:00,
2013-08-21 14:46:00,86.5,53.2,29.75,SE,145,0.0,4.9,32,0.00,,,0.00,meteobridge,2013-08-21 20:46:00,
2013-08-21 14:52:00,86.7,51.6,29.75,South,178,2.9,4.0,30,0.00,,,0.00,meteobridge,2013-08-21 20:52:00,
2013-08-21 14:57:00,86.2,51.1,29.75,SSE,155,0.9,0.9,30,0.00,,,0.00,meteobridge,2013-08-21 20:57:00,
2013-08-21 15:02:00,86.4,51.3,29.74,East,86,0.9,4.9,30,0.00,,,0.00,meteobridge,2013-08-21 21:02:00,
2013-08-21 15:07:00,86.5,52.3,29.74,SE,134,4.9,6.9,31,0.00,,,0.00,meteobridge,2013-08-21 21:07:00,
2013-08-21 15:12:00,86.4,52.2,29.74,SSE,166,0.9,4.9,31,0.00,,,0.00,meteobridge,2013-08-21 21:12:00,
2013-08-21 15:17:00,86.5,52.3,29.73,SE,139,2.9,6.9,31,0.00,,,0.00,meteobridge,2013-08-21 21:17:00,
2013-08-21 15:22:00,86.5,51.4,29.73,SE,136,0.0,0.9,30,0.00,,,0.00,meteobridge,2013-08-21 21:22:00,
2013-08-21 15:27:00,86.5,51.4,29.72,SE,133,2.9,6.9,30,0.00,,,0.00,meteobridge,2013-08-21 21:27:00,
2013-08-21 15:32:00,86.4,50.4,29.73,SE,130,0.0,6.0,29,0.00,,,0.00,meteobridge,2013-08-21 21:32:00,
2013-08-21 15:37:00,86.7,50.7,29.73,ESE,117,4.0,4.9,29,0.00,,,0.00,meteobridge,2013-08-21 21:37:00,
2013-08-21 15:42:00,86.5,48.6,29.72,East,88,2.0,4.9,27,0.00,,,0.00,meteobridge,2013-08-21 21:42:00,
2013-08-21 15:47:00,86.4,49.5,29.72,ESE,119,2.0,8.1,28,0.00,,,0.00,meteobridge,2013-08-21 21:47:00,
2013-08-21 15:52:00,86.4,48.4,29.73,SE,135,2.0,6.9,27,0.00,,,0.00,meteobridge,2013-08-21 21:52:00,
2013-08-21 15:57:00,86.4,51.3,29.73,South,180,2.9,17.0,30,0.00,,,0.00,meteobridge,2013-08-21 21:57:00,
2013-08-21 16:02:00,85.6,51.6,29.73,SE,146,6.9,13.0,31,0.00,,,0.00,meteobridge,2013-08-21 22:02:00,
2013-08-21 16:07:00,85.1,52.7,29.73,SE,126,2.0,10.1,33,0.00,,,0.00,meteobridge,2013-08-21 22:07:00,
2013-08-21 16:12:00,84.4,51.3,29.73,SSE,153,11.0,11.0,32,0.00,,,0.00,meteobridge,2013-08-21 22:12:00,
2013-08-21 16:17:00,84.4,51.3,29.72,SSE,161,2.0,6.9,32,0.00,,,0.00,meteobridge,2013-08-21 22:17:00,
2013-08-21 16:22:00,84.7,50.7,29.72,SE,128,6.0,8.1,31,0.00,,,0.00,meteobridge,2013-08-21 22:22:00,
2013-08-21 16:28:00,84.4,48.7,29.72,SE,138,4.0,12.1,29,0.00,,,0.00,meteobridge,2013-08-21 22:28:00,
2013-08-21 16:33:00,84.0,48.4,29.72,South,173,6.0,6.9,29,0.00,,,0.00,meteobridge,2013-08-21 22:33:00,
2013-08-21 16:38:00,83.8,48.2,29.72,SSW,200,2.0,6.0,29,0.00,,,0.00,meteobridge,2013-08-21 22:38:00,
2013-08-21 16:43:00,84.0,49.3,29.72,WSW,250,0.9,4.0,30,0.00,,,0.00,meteobridge,2013-08-21 22:43:00,
2013-08-21 16:48:00,84.4,48.7,29.72,SW,227,4.9,8.1,29,0.00,,,0.00,meteobridge,2013-08-21 22:48:00,
2013-08-21 16:53:00,84.6,49.6,29.71,SSW,192,2.9,4.0,30,0.00,,,0.00,meteobridge,2013-08-21 22:53:00,
2013-08-21 16:58:00,85.1,47.3,29.71,SW,232,2.0,2.9,27,0.00,,,0.00,meteobridge,2013-08-21 22:58:00,
2013-08-21 17:03:00,85.3,47.5,29.71,SSW,194,2.0,2.9,27,0.00,,,0.00,meteobridge,2013-08-21 23:03:00,
2013-08-21 17:08:00,85.3,47.5,29.71,SSW,198,0.0,0.9,27,0.00,,,0.00,meteobridge,2013-08-21 23:08:00,
2013-08-21 17:13:00,85.5,48.6,29.71,South,171,4.0,6.0,28,0.00,,,0.00,meteobridge,2013-08-21 23:13:00,
2013-08-21 17:18:00,85.5,48.6,29.70,ESE,117,0.9,2.0,28,0.00,,,0.00,meteobridge,2013-08-21 23:18:00,
2013-08-21 17:23:00,85.3,49.5,29.70,East,99,0.0,6.0,29,0.00,,,0.00,meteobridge,2013-08-21 23:23:00,
2013-08-21 17:28:00,85.5,50.5,29.70,SE,139,0.9,4.0,30,0.00,,,0.00,meteobridge,2013-08-21 23:28:00,
2013-08-21 17:33:00,85.5,50.5,29.70,East,83,2.0,4.9,30,0.00,,,0.00,meteobridge,2013-08-21 23:33:00,
2013-08-21 17:38:00,85.5,51.4,29.71,SE,131,2.0,6.0,31,0.00,,,0.00,meteobridge,2013-08-21 23:38:00,
2013-08-21 17:43:00,84.9,50.9,29.70,East,89,2.0,4.9,31,0.00,,,0.00,meteobridge,2013-08-21 23:43:00,
2013-08-21 17:49:00,85.1,52.7,29.70,ESE,111,0.0,0.9,33,0.00,,,0.00,meteobridge,2013-08-21 23:49:00,
2013-08-21 17:54:00,85.8,51.6,29.70,ESE,121,2.0,2.0,31,0.00,,,0.00,meteobridge,2013-08-21 23:54:00,
2013-08-21 17:59:00,86.0,50.9,29.70,East,96,0.0,4.0,30,0.00,,,0.00,meteobridge,2013-08-21 23:59:00,
2013-08-21 18:04:00,86.5,52.3,29.70,SSE,162,0.0,2.0,31,0.00,,,0.00,meteobridge,2013-08-22 00:04:00,
2013-08-21 18:09:00,87.3,52.9,29.70,SE,143,0.0,0.9,31,0.00,,,0.00,meteobridge,2013-08-22 00:09:00,
2013-08-21 18:14:00,87.1,51.8,29.70,East,82,0.9,2.0,30,0.00,,,0.00,meteobridge,2013-08-22 00:14:00,
2013-08-21 18:19:00,86.7,51.6,29.70,SE,126,2.9,2.9,30,0.00,,,0.00,meteobridge,2013-08-22 00:19:00,
2013-08-21 18:24:00,87.1,51.8,29.70,SSE,150,2.0,4.0,30,0.00,,,0.00,meteobridge,2013-08-22 00:24:00,
2013-08-21 18:29:00,87.4,52.2,29.70,SSE,153,0.0,2.0,30,0.00,,,0.00,meteobridge,2013-08-22 00:29:00,
2013-08-21 18:34:00,87.4,51.3,29.70,SSE,150,0.0,4.0,29,0.00,,,0.00,meteobridge,2013-08-22 00:34:00,
2013-08-21 18:39:00,87.1,50.0,29.70,SSE,148,2.0,2.9,28,0.00,,,0.00,meteobridge,2013-08-22 00:39:00,
2013-08-21 18:44:00,87.1,50.9,29.71,SSW,196,2.9,4.0,29,0.00,,,0.00,meteobridge,2013-08-22 00:44:00,
2013-08-21 18:49:00,86.7,50.7,29.70,SE,140,0.9,4.0,29,0.00,,,0.00,meteobridge,2013-08-22 00:49:00,
2013-08-21 18:54:00,86.7,49.6,29.71,SE,140,4.9,4.9,28,0.00,,,0.00,meteobridge,2013-08-22 00:54:00,
2013-08-21 18:59:00,86.5,50.5,29.71,South,190,0.0,4.9,29,0.00,,,0.00,meteobridge,2013-08-22 00:59:00,
2013-08-21 19:04:00,86.4,50.4,29.71,SSE,164,0.0,6.9,29,0.00,,,0.00,meteobridge,2013-08-22 01:04:00,
2013-08-21 19:09:00,86.2,50.2,29.71,SSE,155,4.0,6.9,29,0.00,,,0.00,meteobridge,2013-08-22 01:09:00,
2013-08-21 19:14:00,85.8,49.8,29.71,SSE,150,2.9,4.9,29,0.00,,,0.00,meteobridge,2013-08-22 01:14:00,
2013-08-21 19:19:00,85.6,49.8,29.72,SE,144,2.9,6.9,29,0.00,,,0.00,meteobridge,2013-08-22 01:19:00,
2013-08-21 19:24:00,85.5,49.6,29.72,South,187,2.0,6.0,29,0.00,,,0.00,meteobridge,2013-08-22 01:24:00,
2013-08-21 19:29:00,85.1,49.3,29.72,ESE,123,2.0,11.0,29,0.00,,,0.00,meteobridge,2013-08-22 01:29:00,
2013-08-21 19:34:00,84.7,48.9,29.72,SSE,165,2.0,10.1,29,0.00,,,0.00,meteobridge,2013-08-22 01:34:00,
2013-08-21 19:39:00,84.6,48.7,29.72,South,173,4.0,4.9,29,0.00,,,0.00,meteobridge,2013-08-22 01:39:00,
2013-08-21 19:45:00,84.0,48.4,29.72,South,181,4.0,4.9,29,0.00,,,0.00,meteobridge,2013-08-22 01:45:00,
2013-08-21 19:50:00,83.8,49.1,29.72,SE,144,4.0,6.0,30,0.00,,,0.00,meteobridge,2013-08-22 01:50:00,
2013-08-21 19:55:00,83.7,48.9,29.72,South,169,2.9,8.1,30,0.00,,,0.00,meteobridge,2013-08-22 01:55:00,
2013-08-21 20:00:00,83.5,48.7,29.72,SSE,149,4.0,6.0,30,0.00,,,0.00,meteobridge,2013-08-22 02:00:00,
2013-08-21 20:05:00,83.1,48.6,29.73,SSE,166,4.0,4.9,30,0.00,,,0.00,meteobridge,2013-08-22 02:05:00,
2013-08-21 20:10:00,82.8,49.1,29.73,SSE,158,4.0,6.0,31,0.00,,,0.00,meteobridge,2013-08-22 02:10:00,
2013-08-21 20:15:00,82.4,48.7,29.73,SSE,153,2.9,4.9,31,0.00,,,0.00,meteobridge,2013-08-22 02:15:00,
2013-08-21 20:20:00,82.0,49.3,29.73,SSE,157,2.0,4.9,32,0.00,,,0.00,meteobridge,2013-08-22 02:20:00,
2013-08-21 20:25:00,81.7,48.9,29.73,SSE,152,2.9,4.0,32,0.00,,,0.00,meteobridge,2013-08-22 02:25:00,
2013-08-21 20:30:00,81.3,49.5,29.74,SSE,157,2.0,2.9,33,0.00,,,0.00,meteobridge,2013-08-22 02:30:00,
2013-08-21 20:35:00,81.0,50.0,29.74,SSE,161,0.0,2.9,34,0.00,,,0.00,meteobridge,2013-08-22 02:35:00,
2013-08-21 20:40:00,80.4,50.2,29.74,South,180,0.9,4.0,35,0.00,,,0.00,meteobridge,2013-08-22 02:40:00,
2013-08-21 20:45:00,80.2,50.2,29.74,SSE,163,0.9,4.9,35,0.00,,,0.00,meteobridge,2013-08-22 02:45:00,
2013-08-21 20:50:00,80.1,50.0,29.74,SSE,163,0.9,4.9,35,0.00,,,0.00,meteobridge,2013-08-22 02:50:00,
2013-08-21 20:55:00,79.9,50.5,29.74,SSE,157,0.0,2.9,36,0.00,,,0.00,meteobridge,2013-08-22 02:55:00,
2013-08-21 21:00:00,79.5,50.2,29.75,SSE,165,2.0,2.9,36,0.00,,,0.00,meteobridge,2013-08-22 03:00:00,
2013-08-21 21:05:00,79.3,50.0,29.75,SE,145,0.0,2.9,36,0.00,,,0.00,meteobridge,2013-08-22 03:05:00,
2013-08-21 21:10:00,79.0,50.5,29.75,SE,142,0.0,2.9,37,0.00,,,0.00,meteobridge,2013-08-22 03:10:00,
2013-08-21 21:15:00,78.6,50.2,29.76,SE,130,0.0,2.0,37,0.00,,,0.00,meteobridge,2013-08-22 03:15:00,
2013-08-21 21:20:00,78.4,50.0,29.76,SE,144,2.9,4.0,37,0.00,,,0.00,meteobridge,2013-08-22 03:20:00,
2013-08-21 21:25:00,78.6,49.5,29.77,SE,138,2.0,4.0,36,0.00,,,0.00,meteobridge,2013-08-22 03:25:00,
2013-08-21 21:30:00,78.6,48.7,29.77,SE,144,2.9,4.9,35,0.00,,,0.00,meteobridge,2013-08-22 03:30:00,
2013-08-21 21:35:00,78.6,49.5,29.77,SSE,148,0.0,2.0,36,0.00,,,0.00,meteobridge,2013-08-22 03:35:00,
2013-08-21 21:40:00,78.4,48.6,29.78,SE,143,2.0,4.0,35,0.00,,,0.00,meteobridge,2013-08-22 03:40:00,
2013-08-21 21:45:00,78.3,48.4,29.78,SSE,148,2.0,2.0,35,0.00,,,0.00,meteobridge,2013-08-22 03:45:00,
2013-08-21 21:50:00,77.9,48.7,29.78,SSE,148,0.0,0.0,36,0.00,,,0.00,meteobridge,2013-08-22 03:50:00,
2013-08-21 21:55:00,77.5,48.6,29.78,SSE,148,0.0,0.0,36,0.00,,,0.00,meteobridge,2013-08-22 03:55:00,
2013-08-21 22:00:00,77.2,49.6,29.78,SSE,148,0.0,0.0,38,0.00,,,0.00,meteobridge,2013-08-22 04:00:00,
2013-08-21 22:01:00,77.2,49.6,29.78,SSE,148,0.0,0.9,38,0.00,,,0.00,meteobridge,2013-08-22 04:01:00,
2013-08-21 22:03:00,76.8,50.0,29.78,SSE,148,0.0,0.0,39,0.00,,,0.00,meteobridge,2013-08-22 04:03:00,
2013-08-21 22:05:00,76.5,49.6,29.78,SSE,148,0.0,0.0,39,0.00,,,0.00,meteobridge,2013-08-22 04:05:00,
2013-08-21 22:11:00,75.9,50.5,29.78,SSE,148,0.0,0.9,41,0.00,,,0.00,meteobridge,2013-08-22 04:11:00,
2013-08-21 22:16:00,75.6,50.9,29.78,SSE,148,0.0,0.0,42,0.00,,,0.00,meteobridge,2013-08-22 04:16:00,
2013-08-21 22:21:00,75.0,51.1,29.79,SSE,148,0.0,0.9,43,0.00,,,0.00,meteobridge,2013-08-22 04:21:00,
2013-08-21 22:26:00,74.8,51.4,29.79,SSE,148,0.0,0.0,44,0.00,,,0.00,meteobridge,2013-08-22 04:26:00,
2013-08-21 22:31:00,74.5,51.1,29.79,SSE,148,0.0,0.0,44,0.00,,,0.00,meteobridge,2013-08-22 04:31:00,
2013-08-21 22:36:00,74.3,50.9,29.79,SSE,148,0.0,0.0,44,0.00,,,0.00,meteobridge,2013-08-22 04:36:00,
2013-08-21 22:41:00,73.9,51.8,29.79,SSE,148,0.0,0.0,46,0.00,,,0.00,meteobridge,2013-08-22 04:41:00,
2013-08-21 22:46:00,73.9,50.7,29.79,SSE,148,0.0,0.9,44,0.00,,,0.00,meteobridge,2013-08-22 04:46:00,
2013-08-21 22:52:00,74.1,50.9,29.80,South,180,0.0,0.0,44,0.00,,,0.00,meteobridge,2013-08-22 04:52:00,
2013-08-21 22:57:00,73.8,51.6,29.80,South,180,0.0,0.0,46,0.00,,,0.00,meteobridge,2013-08-22 04:57:00,
2013-08-21 23:02:00,73.2,51.3,29.80,South,180,0.9,0.9,46,0.00,,,0.00,meteobridge,2013-08-22 05:02:00,
2013-08-21 23:07:00,73.6,50.9,29.80,South,180,0.0,0.0,45,0.00,,,0.00,meteobridge,2013-08-22 05:07:00,
2013-08-21 23:12:00,73.6,50.9,29.80,South,180,0.0,0.0,45,0.00,,,0.00,meteobridge,2013-08-22 05:12:00,
2013-08-21 23:17:00,72.9,50.4,29.80,South,180,0.0,0.0,45,0.00,,,0.00,meteobridge,2013-08-22 05:17:00,
2013-08-21 23:22:00,72.3,50.9,29.80,South,180,0.0,0.0,47,0.00,,,0.00,meteobridge,2013-08-22 05:22:00,
2013-08-21 23:27:00,72.3,50.4,29.80,South,180,0.0,0.0,46,0.00,,,0.00,meteobridge,2013-08-22 05:27:00,
2013-08-21 23:32:00,72.3,50.4,29.80,South,180,0.0,0.0,46,0.00,,,0.00,meteobridge,2013-08-22 05:32:00,
2013-08-21 23:38:00,72.7,50.7,29.80,South,180,0.9,0.9,46,0.00,,,0.00,meteobridge,2013-08-22 05:38:00,
2013-08-21 23:43:00,72.7,51.3,29.80,South,180,0.0,0.0,47,0.00,,,0.00,meteobridge,2013-08-22 05:43:00,
2013-08-21 23:48:00,72.3,50.4,29.80,South,180,0.0,0.9,46,0.00,,,0.00,meteobridge,2013-08-22 05:48:00,
2013-08-21 23:53:00,72.7,50.7,29.80,South,180,0.0,0.9,46,0.00,,,0.00,meteobridge,2013-08-22 05:53:00,
2013-08-21 23:58:00,72.7,50.7,29.80,South,180,0.0,0.0,46,0.00,,,0.00,meteobridge,2013-08-22 05:58:00,